Time,TemperatureF,DewpointF,PressureIn,WindDirection,WindDirectionDegrees,WindSpeedMPH,WindSpeedGustMPH,Humidity,HourlyPrecipIn,Conditions,Clouds,dailyrainin,SoftwareType,DateUTC
2013-03-11 00:02:00,50.5,45.0,29.88,NW,308,3.0,7.0,82,0.00,,,1.19,weatherlink.com 1.10,2013-03-11 05:02:00,
2013-03-11 00:17:00,49.0,43.0,29.88,SW,228,4.0,12.0,81,0.00,,,0.00,weatherlink.com 1.10,2013-03-11 05:17:00,
2013-03-11 00:32:00,48.3,43.0,29.87,SE,128,1.0,6.0,83,0.00,,,0.00,weatherlink.com 1.10,2013-03-11 05:32:00,
2013-03-11 00:47:00,47.9,43.0,29.87,WSW,255,3.0,8.0,83,0.00,,,0.00,weatherlink.com 1.10,2013-03-11 05:47:00,
2013-03-11 01:02:00,47.7,43.0,29.88,ESE,123,2.0,6.0,83,0.00,,,0.00,weatherlink.com 1.10,2013-03-11 06:02:00,
2013-03-11 01:17:00,47.5,42.0,29.87,West,261,1.0,5.0,82,0.00,,,0.00,weatherlink.com 1.10,2013-03-11 06:17:00,
2013-03-11 01:32:00,47.1,41.0,29.88,WSW,243,1.0,4.0,80,0.00,,,0.00,weatherlink.com 1.10,2013-03-11 06:32:00,
2013-03-11 01:47:00,46.8,41.0,29.87,WNW,301,1.0,5.0,80,0.00,,,0.00,weatherlink.com 1.10,2013-03-11 06:47:00,
2013-03-11 02:02:00,46.5,42.0,29.88,WSW,257,1.0,4.0,83,0.00,,,0.00,weatherlink.com 1.10,2013-03-11 07:02:00,
2013-03-11 02:17:00,46.1,40.0,29.88,SW,228,3.0,9.0,80,0.00,,,0.00,weatherlink.com 1.10,2013-03-11 07:17:00,
2013-03-11 02:32:00,45.5,40.0,29.87,WSW,238,2.0,7.0,81,0.00,,,0.00,weatherlink.com 1.10,2013-03-11 07:32:00,
2013-03-11 02:47:00,45.0,40.0,29.87,WSW,242,1.0,7.0,81,0.00,,,0.00,weatherlink.com 1.10,2013-03-11 07:47:00,
2013-03-11 03:02:00,44.8,40.0,29.88,WSW,257,1.0,5.0,82,0.00,,,0.00,weatherlink.com 1.10,2013-03-11 08:02:00,
2013-03-11 03:17:00,44.9,40.0,29.90,SW,228,4.0,10.0,84,0.00,,,0.00,weatherlink.com 1.10,2013-03-11 08:17:00,
2013-03-11 03:32:00,44.7,40.0,29.89,WSW,255,3.0,7.0,83,0.00,,,0.00,weatherlink.com 1.10,2013-03-11 08:32:00,
2013-03-11 03:47:00,44.5,40.0,29.89,SW,224,1.0,7.0,83,0.00,,,0.00,weatherlink.com 1.10,2013-03-11 08:47:00,
2013-03-11 04:02:00,44.2,39.0,29.88,SW,225,2.0,5.0,82,0.00,,,0.00,weatherlink.com 1.10,2013-03-11 09:02:00,
2013-03-11 04:17:00,44.1,39.0,29.88,WNW,283,2.0,6.0,83,0.00,,,0.00,weatherlink.com 1.10,2013-03-11 09:17:00,
2013-03-11 04:33:00,43.9,39.0,29.88,SW,221,2.0,6.0,83,0.00,,,0.00,weatherlink.com 1.10,2013-03-11 09:33:00,
2013-03-11 04:48:00,43.5,38.0,29.87,SW,236,2.0,8.0,81,0.00,,,0.00,weatherlink.com 1.10,2013-03-11 09:48:00,
2013-03-11 05:03:00,43.5,38.0,29.88,West,280,2.0,5.0,82,0.00,,,0.00,weatherlink.com 1.10,2013-03-11 10:03:00,
2013-03-11 05:33:00,43.1,38.0,29.90,West,263,1.0,4.0,81,0.00,,,0.00,weatherlink.com 1.10,2013-03-11 10:33:00,
2013-03-11 05:47:00,42.9,37.0,29.90,West,275,1.0,8.0,79,0.00,,,0.00,weatherlink.com 1.10,2013-03-11 10:47:00,
2013-03-11 06:02:00,42.5,36.0,29.90,WSW,242,1.0,6.0,79,0.00,,,0.00,weatherlink.com 1.10,2013-03-11 11:02:00,
2013-03-11 06:17:00,42.2,36.0,29.91,WSW,248,8.0,10.0,78,0.00,,,0.00,weatherlink.com 1.10,2013-03-11 11:17:00,
2013-03-11 06:32:00,42.0,36.0,29.93,WSW,243,2.0,6.0,80,0.00,,,0.00,weatherlink.com 1.10,2013-03-11 11:32:00,
2013-03-11 06:47:00,41.6,36.0,29.91,West,271,2.0,7.0,79,0.00,,,0.00,weatherlink.com 1.10,2013-03-11 11:47:00,
2013-03-11 07:02:00,41.3,35.0,29.90,WSW,240,8.0,9.0,79,0.00,,,0.00,weatherlink.com 1.10,2013-03-11 12:02:00,
2013-03-11 07:17:00,40.8,34.0,29.91,WSW,242,5.0,11.0,78,0.00,,,0.00,weatherlink.com 1.10,2013-03-11 12:17:00,
2013-03-11 07:32:00,40.4,33.0,29.92,WNW,293,2.0,10.0,76,0.00,,,0.00,weatherlink.com 1.10,2013-03-11 12:32:00,
2013-03-11 07:47:00,40.1,33.0,29.91,WNW,288,1.0,8.0,77,0.00,,,0.00,weatherlink.com 1.10,2013-03-11 12:47:00,
2013-03-11 08:02:00,39.8,33.0,29.93,SW,232,3.0,9.0,77,0.00,,,0.00,weatherlink.com 1.10,2013-03-11 13:02:00,
2013-03-11 08:18:00,39.7,32.0,29.93,NNE,23,2.0,9.0,75,0.00,,,0.00,weatherlink.com 1.10,2013-03-11 13:18:00,
2013-03-11 08:33:00,39.6,32.0,29.94,West,262,4.0,7.0,75,0.00,,,0.00,weatherlink.com 1.10,2013-03-11 13:33:00,
2013-03-11 08:48:00,39.3,32.0,29.94,SW,228,1.0,8.0,76,0.00,,,0.00,weatherlink.com 1.10,2013-03-11 13:48:00,
2013-03-11 09:18:00,39.7,33.0,29.95,SW,232,5.0,10.0,76,0.00,,,0.00,weatherlink.com 1.10,2013-03-11 14:18:00,
2013-03-11 09:33:00,39.8,33.0,29.95,West,275,4.0,8.0,76,0.00,,,0.00,weatherlink.com 1.10,2013-03-11 14:33:00,
2013-03-11 09:48:00,39.9,33.0,29.95,SW,222,2.0,7.0,76,0.00,,,0.00,weatherlink.com 1.10,2013-03-11 14:48:00,
2013-03-11 10:03:00,39.8,33.0,29.95,NW,304,3.0,7.0,77,0.00,,,0.00,weatherlink.com 1.10,2013-03-11 15:03:00,
2013-03-11 10:18:00,39.9,33.0,29.96,NW,307,1.0,10.0,77,0.00,,,0.00,weatherlink.com 1.10,2013-03-11 15:18:00,
2013-03-11 10:33:00,40.2,33.0,29.96,West,259,3.0,7.0,76,0.00,,,0.00,weatherlink.com 1.10,2013-03-11 15:33:00,
2013-03-11 10:48:00,40.7,34.0,29.96,West,275,1.0,6.0,76,0.00,,,0.00,weatherlink.com 1.10,2013-03-11 15:48:00,
2013-03-11 11:03:00,40.7,33.0,29.97,WSW,257,6.0,6.0,75,0.00,,,0.00,weatherlink.com 1.10,2013-03-11 16:03:00,
2013-03-11 11:18:00,40.6,33.0,29.97,SW,231,2.0,9.0,75,0.00,,,0.00,weatherlink.com 1.10,2013-03-11 16:18:00,
2013-03-11 11:33:00,40.9,34.0,29.97,West,281,1.0,8.0,76,0.00,,,0.00,weatherlink.com 1.10,2013-03-11 16:33:00,
2013-03-11 11:48:00,42.2,34.0,29.98,WSW,243,1.0,8.0,72,0.00,,,0.00,weatherlink.com 1.10,2013-03-11 16:48:00,
2013-03-11 12:03:00,42.6,33.0,29.98,WNW,293,3.0,6.0,69,0.00,,,0.00,weatherlink.com 1.10,2013-03-11 17:03:00,
2013-03-11 12:18:00,41.7,33.0,29.98,SW,225,2.0,9.0,72,0.00,,,0.00,weatherlink.com 1.10,2013-03-11 17:18:00,
2013-03-11 12:33:00,41.1,33.0,29.98,SW,226,2.0,9.0,72,0.00,,,0.00,weatherlink.com 1.10,2013-03-11 17:33:00,
2013-03-11 12:48:00,40.9,33.0,29.98,WSW,245,2.0,7.0,73,0.00,,,0.00,weatherlink.com 1.10,2013-03-11 17:48:00,
2013-03-11 13:03:00,41.2,33.0,29.98,WSW,256,7.0,8.0,72,0.00,,,0.00,weatherlink.com 1.10,2013-03-11 18:03:00,
2013-03-11 13:18:00,41.9,33.0,29.97,SW,235,3.0,9.0,70,0.00,,,0.00,weatherlink.com 1.10,2013-03-11 18:18:00,
2013-03-11 13:33:00,42.8,33.0,29.97,West,276,2.0,8.0,68,0.00,,,0.00,weatherlink.com 1.10,2013-03-11 18:33:00,
2013-03-11 13:48:00,42.7,33.0,29.96,West,263,3.0,7.0,68,0.00,,,0.00,weatherlink.com 1.10,2013-03-11 18:48:00,
2013-03-11 14:03:00,42.6,32.0,29.96,SSW,195,2.0,8.0,67,0.00,,,0.00,weatherlink.com 1.10,2013-03-11 19:03:00,
2013-03-11 14:18:00,43.0,33.0,29.96,WNW,290,2.0,5.0,69,0.00,,,0.00,weatherlink.com 1.10,2013-03-11 19:18:00,
2013-03-11 14:33:00,43.1,33.0,29.96,SW,221,4.0,7.0,68,0.00,,,0.00,weatherlink.com 1.10,2013-03-11 19:33:00,
2013-03-11 14:48:00,43.1,34.0,29.96,South,174,2.0,9.0,69,0.00,,,0.00,weatherlink.com 1.10,2013-03-11 19:48:00,
2013-03-11 15:03:00,43.8,34.0,29.96,WSW,250,4.0,7.0,68,0.00,,,0.00,weatherlink.com 1.10,2013-03-11 20:03:00,
2013-03-11 15:18:00,44.3,34.0,29.95,SW,228,3.0,7.0,66,0.00,,,0.00,weatherlink.com 1.10,2013-03-11 20:18:00,
2013-03-11 15:33:00,43.8,33.0,29.95,SW,219,2.0,6.0,67,0.00,,,0.00,weatherlink.com 1.10,2013-03-11 20:33:00,
2013-03-11 15:48:00,45.4,34.0,29.96,South,191,1.0,5.0,65,0.00,,,0.00,weatherlink.com 1.10,2013-03-11 20:48:00,
2013-03-11 16:03:00,45.3,34.0,29.96,NW,305,2.0,5.0,66,0.00,,,0.00,weatherlink.com 1.10,2013-03-11 21:03:00,
2013-03-11 16:18:00,45.0,34.0,29.96,West,263,0.0,2.0,66,0.00,,,0.00,weatherlink.com 1.10,2013-03-11 21:18:00,
2013-03-11 16:33:00,45.4,34.0,29.96,SSW,212,1.0,4.0,65,0.00,,,0.00,weatherlink.com 1.10,2013-03-11 21:33:00,
2013-03-11 16:48:00,45.5,34.0,29.95,NNW,346,3.0,5.0,65,0.00,,,0.00,weatherlink.com 1.10,2013-03-11 21:48:00,
2013-03-11 17:03:00,45.5,34.0,29.96,SW,229,0.0,5.0,64,0.00,,,0.00,weatherlink.com 1.10,2013-03-11 22:03:00,
2013-03-11 17:18:00,46.8,34.0,29.97,West,261,1.0,6.0,62,0.00,,,0.00,weatherlink.com 1.10,2013-03-11 22:18:00,
2013-03-11 17:33:00,45.9,34.0,29.97,SW,228,1.0,5.0,64,0.00,,,0.00,weatherlink.com 1.10,2013-03-11 22:33:00,
2013-03-11 17:48:00,45.7,34.0,29.98,WNW,301,2.0,3.0,63,0.00,,,0.00,weatherlink.com 1.10,2013-03-11 22:48:00,
2013-03-11 18:03:00,45.4,33.0,29.98,WNW,288,1.0,7.0,63,0.00,,,0.00,weatherlink.com 1.10,2013-03-11 23:03:00,
2013-03-11 18:18:00,45.2,34.0,29.98,WSW,238,1.0,6.0,64,0.00,,,0.00,weatherlink.com 1.10,2013-03-11 23:18:00,
2013-03-11 18:33:00,45.0,34.0,29.98,West,260,1.0,6.0,65,0.00,,,0.00,weatherlink.com 1.10,2013-03-11 23:33:00,
2013-03-11 18:48:00,44.4,34.0,29.99,WSW,242,0.0,4.0,66,0.00,,,0.00,weatherlink.com 1.10,2013-03-11 23:48:00,
2013-03-11 19:03:00,43.8,33.0,29.99,WSW,248,0.0,1.0,67,0.00,,,0.00,weatherlink.com 1.10,2013-03-12 00:03:00,
2013-03-11 19:18:00,43.3,34.0,29.99,WSW,255,0.0,2.0,69,0.00,,,0.00,weatherlink.com 1.10,2013-03-12 00:18:00,
2013-03-11 19:33:00,42.9,34.0,30.00,SW,235,0.0,1.0,70,0.00,,,0.00,weatherlink.com 1.10,2013-03-12 00:33:00,
2013-03-11 19:48:00,42.3,34.0,30.01,SW,235,0.0,0.0,71,0.00,,,0.00,weatherlink.com 1.10,2013-03-12 00:48:00,
2013-03-11 20:03:00,41.7,33.0,30.01,WSW,255,0.0,1.0,72,0.00,,,0.00,weatherlink.com 1.10,2013-03-12 01:03:00,
2013-03-11 20:18:00,40.7,33.0,30.02,WSW,255,0.0,0.0,75,0.00,,,0.00,weatherlink.com 1.10,2013-03-12 01:18:00,
2013-03-11 20:33:00,39.6,33.0,30.02,WSW,255,0.0,0.0,77,0.00,,,0.00,weatherlink.com 1.10,2013-03-12 01:33:00,
2013-03-11 21:04:00,38.6,34.0,30.03,WSW,255,0.0,0.0,82,0.00,,,0.00,weatherlink.com 1.10,2013-03-12 02:04:00,
2013-03-11 21:19:00,38.1,33.0,30.04,WSW,255,0.0,0.0,83,0.00,,,0.00,weatherlink.com 1.10,2013-03-12 02:19:00,
2013-03-11 21:34:00,37.6,34.0,30.04,WSW,255,0.0,0.0,85,0.00,,,0.00,weatherlink.com 1.10,2013-03-12 02:34:00,
2013-03-11 21:49:00,37.9,34.0,30.05,WSW,255,0.0,0.0,86,0.00,,,0.00,weatherlink.com 1.10,2013-03-12 02:49:00,
2013-03-11 22:04:00,38.7,35.0,30.05,East,79,0.0,1.0,85,0.00,,,0.00,weatherlink.com 1.10,2013-03-12 03:04:00,
2013-03-11 22:19:00,38.5,34.0,30.05,East,79,0.0,0.0,84,0.00,,,0.00,weatherlink.com 1.10,2013-03-12 03:19:00,
2013-03-11 22:34:00,37.5,33.0,30.06,East,79,0.0,0.0,84,0.00,,,0.00,weatherlink.com 1.10,2013-03-12 03:34:00,
2013-03-11 22:49:00,36.3,32.0,30.06,East,79,0.0,0.0,85,0.00,,,0.00,weatherlink.com 1.10,2013-03-12 03:49:00,
2013-03-11 23:04:00,36.1,33.0,30.07,East,79,0.0,0.0,88,0.00,,,0.00,weatherlink.com 1.10,2013-03-12 04:04:00,
2013-03-11 23:19:00,35.3,32.0,30.07,East,79,0.0,0.0,88,0.00,,,0.00,weatherlink.com 1.10,2013-03-12 04:19:00,
2013-03-11 23:34:00,34.7,32.0,30.07,East,79,0.0,0.0,89,0.00,,,0.00,weatherlink.com 1.10,2013-03-12 04:34:00,
2013-03-11 23:49:00,35.0,32.0,30.06,East,79,0.0,0.0,90,0.00,,,0.00,weatherlink.com 1.10,2013-03-12 04:49:00,